OBJECT W (43778 NORAD) Tracking and Keplerian Element Data

This shows tracking and keplerian element data for the satellite.

Feedback or suggestion? Click here.




ElementValue
Catalog43778
NameOBJECT W
Epoch Orbit629
Epoch Day17.73675268
Epoch Year2019
RAAN91.3779
Inclination97.7543
Eccentricity0.0015527
Argument of Perigee115.4842
Mean Anonmoly244.7986
Mean Motion14.94759674
Decay Rate4.46E-06
L11 43778U 18099W 19017.73675268 .00000446 00000-0 46270-4 0 9995
L22 43778 97.7543 91.3779 0015527 115.4842 244.7986 14.94759674 6290

Live tracking and technical data element details for OBJECT W (NORAD 43778). OBJECT W can be tracked NOW for your location showing map with azimuth and elevation plus other details from your city location.

Track the satellite on the map from your city or location and see movement details for azimuth, elevation, latitude, longitude, range, height, and movement on the map or in text.







IsCatalogInMostPopularTable: catalog: 43778, numindb: 16
Update: records affected: 1



GetName: 43778 OBJECT W

Hit Count: updated at: Fri, 18 Jan 2019 22:29:49 GMT